Back to catalog

STARLINK-37746

AliveCommunicationsSSO
NORAD 69230·PAYLOAD·🇺🇸 United States

Launched May 26, 2026 from Vandenberg Space Force Base

Loading…

Next Passes (next 24 hours)

TLE

FreshSource: CelesTrak SupGP

Epoch: Sep 15, 2026, 03:05 UTC

1 69230C 26115V   26258.12895833 -.00064298  00000+0 -19956-2 0  2587
2 69230  97.2832 274.3514 0001538  93.8193 156.6011 15.33476470    10

Track STARLINK-37746 in real time with AllMySat

Download on the App Store